Time,TemperatureF,DewpointF,PressureIn,WindDirection,WindDirectionDegrees,WindSpeedMPH,WindSpeedGustMPH,Humidity,HourlyPrecipIn,Conditions,Clouds,dailyrainin,SoftwareType,DateUTC
2013-05-01 00:01:00,69.0,24.0,30.09,NNW,337,6.1,10.5,19,0.00,,,0.00,Rainwise IP-100,2013-05-01 07:01:00,
2013-05-01 00:06:00,69.1,24.0,30.09,NNW,337,1.9,9.8,18,0.00,,,0.00,Rainwise IP-100,2013-05-01 07:06:00,
2013-05-01 00:11:00,69.0,24.0,30.09,NNE,22,2.6,7.5,18,0.00,,,0.00,Rainwise IP-100,2013-05-01 07:11:00,
2013-05-01 00:16:00,68.8,24.0,30.10,NNW,337,2.8,7.2,19,0.00,,,0.00,Rainwise IP-100,2013-05-01 07:16:00,
2013-05-01 00:21:00,68.7,24.0,30.10,North,360,4.9,7.9,18,0.00,,,0.00,Rainwise IP-100,2013-05-01 07:21:00,
2013-05-01 00:26:00,68.6,24.0,30.09,East,90,0.0,10.7,18,0.00,,,0.00,Rainwise IP-100,2013-05-01 07:26:00,
2013-05-01 00:31:00,68.4,24.0,30.09,WSW,247,1.2,6.1,19,0.00,,,0.00,Rainwise IP-100,2013-05-01 07:31:00,
2013-05-01 00:36:00,68.2,24.0,30.09,NNE,22,0.0,9.1,19,0.00,,,0.00,Rainwise IP-100,2013-05-01 07:36:00,
2013-05-01 00:41:00,68.0,24.0,30.09,South,180,1.4,4.9,19,0.00,,,0.00,Rainwise IP-100,2013-05-01 07:41:00,
2013-05-01 00:46:00,67.8,24.0,30.10,NE,45,4.9,4.9,19,0.00,,,0.00,Rainwise IP-100,2013-05-01 07:46:00,
2013-05-01 00:51:00,67.8,24.0,30.09,ENE,67,2.1,5.6,19,0.00,,,0.00,Rainwise IP-100,2013-05-01 07:51:00,
2013-05-01 00:56:00,68.0,24.0,30.10,NNE,22,0.0,6.8,19,0.00,,,0.00,Rainwise IP-100,2013-05-01 07:56:00,
2013-05-01 01:01:00,68.2,23.0,30.10,NNE,22,7.0,8.4,18,0.00,,,0.00,Rainwise IP-100,2013-05-01 08:01:00,
2013-05-01 01:06:00,68.6,24.0,30.09,ESE,112,2.6,10.0,18,0.00,,,0.00,Rainwise IP-100,2013-05-01 08:06:00,
2013-05-01 01:11:00,68.9,24.0,30.10,NE,45,1.9,7.5,18,0.00,,,0.00,Rainwise IP-100,2013-05-01 08:11:00,
2013-05-01 01:16:00,68.8,24.0,30.10,NE,45,3.0,10.3,18,0.00,,,0.00,Rainwise IP-100,2013-05-01 08:16:00,
2013-05-01 01:21:00,68.9,24.0,30.10,ENE,67,7.0,13.8,18,0.00,,,0.00,Rainwise IP-100,2013-05-01 08:21:00,
2013-05-01 01:26:00,69.4,23.0,30.10,ESE,112,2.8,14.0,17,0.00,,,0.00,Rainwise IP-100,2013-05-01 08:26:00,
2013-05-01 01:31:00,69.6,23.0,30.09,WNW,292,1.2,11.2,17,0.00,,,0.00,Rainwise IP-100,2013-05-01 08:31:00,
2013-05-01 01:36:00,69.5,23.0,30.10,NE,45,6.8,11.7,17,0.00,,,0.00,Rainwise IP-100,2013-05-01 08:36:00,
2013-05-01 01:41:00,69.5,23.0,30.10,NNE,22,2.8,11.2,17,0.00,,,0.00,Rainwise IP-100,2013-05-01 08:41:00,
2013-05-01 01:46:00,69.4,23.0,30.10,WSW,247,1.4,9.3,17,0.00,,,0.00,Rainwise IP-100,2013-05-01 08:46:00,
2013-05-01 01:51:00,69.2,23.0,30.09,NNW,337,6.8,10.3,17,0.00,,,0.00,Rainwise IP-100,2013-05-01 08:51:00,
2013-05-01 01:56:00,69.2,23.0,30.09,NNE,22,8.4,16.1,17,0.00,,,0.00,Rainwise IP-100,2013-05-01 08:56:00,
2013-05-01 02:01:00,69.3,23.0,30.09,ENE,67,5.8,19.8,17,0.00,,,0.00,Rainwise IP-100,2013-05-01 09:01:00,
2013-05-01 02:06:00,69.5,23.0,30.09,SE,135,4.0,16.8,17,0.00,,,0.00,Rainwise IP-100,2013-05-01 09:06:00,
2013-05-01 02:11:00,69.5,23.0,30.09,ENE,67,5.8,14.9,17,0.00,,,0.00,Rainwise IP-100,2013-05-01 09:11:00,
2013-05-01 02:16:00,69.3,23.0,30.10,ESE,112,2.8,17.3,17,0.00,,,0.00,Rainwise IP-100,2013-05-01 09:16:00,
2013-05-01 02:21:00,69.3,23.0,30.09,NNW,337,2.1,17.5,17,0.00,,,0.00,Rainwise IP-100,2013-05-01 09:21:00,
2013-05-01 02:26:00,69.3,23.0,30.09,NNW,337,10.5,18.2,17,0.00,,,0.00,Rainwise IP-100,2013-05-01 09:26:00,
2013-05-01 02:31:00,69.2,23.0,30.09,NNE,22,2.8,18.7,17,0.00,,,0.00,Rainwise IP-100,2013-05-01 09:31:00,
2013-05-01 02:36:00,69.1,23.0,30.09,ENE,67,0.0,18.4,17,0.00,,,0.00,Rainwise IP-100,2013-05-01 09:36:00,
2013-05-01 02:41:00,69.1,23.0,30.09,SSW,202,1.9,15.2,17,0.00,,,0.00,Rainwise IP-100,2013-05-01 09:41:00,
2013-05-01 02:46:00,69.0,23.0,30.09,NNW,337,1.4,15.2,17,0.00,,,0.00,Rainwise IP-100,2013-05-01 09:46:00,
2013-05-01 02:51:00,68.7,24.0,30.10,NNE,22,5.4,14.7,18,0.00,,,0.00,Rainwise IP-100,2013-05-01 09:51:00,
2013-05-01 02:56:00,68.6,24.0,30.10,ENE,67,3.0,15.6,18,0.00,,,0.00,Rainwise IP-100,2013-05-01 09:56:00,
2013-05-01 03:01:00,68.6,24.0,30.10,ENE,67,1.6,14.0,18,0.00,,,0.00,Rainwise IP-100,2013-05-01 10:01:00,
2013-05-01 03:06:00,68.6,24.0,30.10,SSW,202,1.2,12.8,18,0.00,,,0.00,Rainwise IP-100,2013-05-01 10:06:00,
2013-05-01 03:11:00,68.5,24.0,30.10,NE,45,16.3,16.3,18,0.00,,,0.00,Rainwise IP-100,2013-05-01 10:11:00,
2013-05-01 03:16:00,68.3,24.0,30.10,NE,45,13.1,18.4,18,0.00,,,0.00,Rainwise IP-100,2013-05-01 10:16:00,
2013-05-01 03:21:00,68.2,23.0,30.10,West,270,0.0,17.0,18,0.00,,,0.00,Rainwise IP-100,2013-05-01 10:21:00,
2013-05-01 03:26:00,68.0,23.0,30.10,ENE,67,8.9,12.8,18,0.00,,,0.00,Rainwise IP-100,2013-05-01 10:26:00,
2013-05-01 03:31:00,67.8,23.0,30.10,SSW,202,0.0,13.3,18,0.00,,,0.00,Rainwise IP-100,2013-05-01 10:31:00,
2013-05-01 03:36:00,67.7,23.0,30.11,NE,45,3.0,10.5,18,0.00,,,0.00,Rainwise IP-100,2013-05-01 10:36:00,
2013-05-01 03:41:00,67.6,24.0,30.11,NE,45,4.4,12.4,19,0.00,,,0.00,Rainwise IP-100,2013-05-01 10:41:00,
2013-05-01 03:46:00,67.5,24.0,30.11,NE,45,3.5,15.2,19,0.00,,,0.00,Rainwise IP-100,2013-05-01 10:46:00,
2013-05-01 03:51:00,67.6,24.0,30.11,NNW,337,8.4,14.2,19,0.00,,,0.00,Rainwise IP-100,2013-05-01 10:51:00,
2013-05-01 03:56:00,67.6,24.0,30.11,NE,45,5.1,13.1,19,0.00,,,0.00,Rainwise IP-100,2013-05-01 10:56:00,
2013-05-01 04:01:00,67.5,24.0,30.11,North,360,13.3,13.5,19,0.00,,,0.00,Rainwise IP-100,2013-05-01 11:01:00,
2013-05-01 04:06:00,67.3,26.0,30.11,NNW,337,4.0,14.0,20,0.00,,,0.00,Rainwise IP-100,2013-05-01 11:06:00,
2013-05-01 04:11:00,67.1,24.0,30.11,ENE,67,0.0,17.0,20,0.00,,,0.00,Rainwise IP-100,2013-05-01 11:11:00,
2013-05-01 04:16:00,66.9,26.0,30.12,North,360,4.4,9.3,21,0.00,,,0.00,Rainwise IP-100,2013-05-01 11:16:00,
2013-05-01 04:21:00,66.6,26.0,30.12,ESE,112,0.0,8.9,21,0.00,,,0.00,Rainwise IP-100,2013-05-01 11:21:00,
2013-05-01 04:26:00,66.2,26.0,30.12,ENE,67,2.3,8.6,22,0.00,,,0.00,Rainwise IP-100,2013-05-01 11:26:00,
2013-05-01 04:31:00,65.9,26.0,30.12,East,90,0.0,5.6,22,0.00,,,0.00,Rainwise IP-100,2013-05-01 11:31:00,
2013-05-01 04:36:00,65.7,26.0,30.12,NE,45,0.0,7.5,23,0.00,,,0.00,Rainwise IP-100,2013-05-01 11:36:00,
2013-05-01 04:41:00,65.5,26.0,30.12,NNE,22,0.0,7.2,23,0.00,,,0.00,Rainwise IP-100,2013-05-01 11:41:00,
2013-05-01 04:46:00,65.1,28.0,30.12,NNE,22,1.4,4.4,24,0.00,,,0.00,Rainwise IP-100,2013-05-01 11:46:00,
2013-05-01 04:51:00,64.7,28.0,30.12,NNW,337,2.8,4.0,24,0.00,,,0.00,Rainwise IP-100,2013-05-01 11:51:00,
2013-05-01 04:56:00,64.2,26.0,30.13,North,360,1.2,4.2,24,0.00,,,0.00,Rainwise IP-100,2013-05-01 11:56:00,
2013-05-01 05:01:00,63.9,28.0,30.13,North,360,0.0,2.8,25,0.00,,,0.00,Rainwise IP-100,2013-05-01 12:01:00,
2013-05-01 05:06:00,63.7,28.0,30.13,North,360,0.0,1.2,25,0.00,,,0.00,Rainwise IP-100,2013-05-01 12:06:00,
2013-05-01 05:11:00,63.4,28.0,30.13,NNW,337,1.4,4.0,25,0.00,,,0.00,Rainwise IP-100,2013-05-01 12:11:00,
2013-05-01 05:16:00,63.4,28.0,30.13,NNE,22,0.0,3.3,25,0.00,,,0.00,Rainwise IP-100,2013-05-01 12:16:00,
2013-05-01 05:21:00,63.3,28.0,30.13,NNE,22,0.0,2.6,26,0.00,,,0.00,Rainwise IP-100,2013-05-01 12:21:00,
2013-05-01 05:26:00,63.0,28.0,30.13,NNW,337,1.4,2.1,26,0.00,,,0.00,Rainwise IP-100,2013-05-01 12:26:00,
2013-05-01 05:31:00,62.9,28.0,30.14,East,90,2.8,3.0,26,0.00,,,0.00,Rainwise IP-100,2013-05-01 12:31:00,
2013-05-01 05:36:00,63.2,28.0,30.14,NNW,337,2.6,3.7,26,0.00,,,0.00,Rainwise IP-100,2013-05-01 12:36:00,
2013-05-01 05:41:00,63.4,28.0,30.14,SSE,157,0.0,3.0,26,0.00,,,0.00,Rainwise IP-100,2013-05-01 12:41:00,
2013-05-01 05:46:00,63.5,28.0,30.15,ESE,112,0.0,2.8,25,0.00,,,0.00,Rainwise IP-100,2013-05-01 12:46:00,
2013-05-01 05:51:00,63.4,28.0,30.14,NNE,22,0.0,4.0,25,0.00,,,0.00,Rainwise IP-100,2013-05-01 12:51:00,
2013-05-01 05:56:00,62.9,28.0,30.15,WNW,292,3.3,3.3,26,0.00,,,0.00,Rainwise IP-100,2013-05-01 12:56:00,
2013-05-01 06:01:00,62.6,28.0,30.14,North,360,2.1,4.0,26,0.00,,,0.00,Rainwise IP-100,2013-05-01 13:01:00,
2013-05-01 06:06:00,62.6,28.0,30.15,NE,45,2.3,4.0,26,0.00,,,0.00,Rainwise IP-100,2013-05-01 13:06:00,
2013-05-01 06:11:00,62.9,28.0,30.15,NE,45,0.0,4.0,25,0.00,,,0.00,Rainwise IP-100,2013-05-01 13:11:00,
2013-05-01 06:16:00,62.7,28.0,30.16,NE,45,0.0,0.0,26,0.00,,,0.00,Rainwise IP-100,2013-05-01 13:16:00,
2013-05-01 06:21:00,61.7,28.0,30.16,NNW,337,2.1,3.3,28,0.00,,,0.00,Rainwise IP-100,2013-05-01 13:21:00,
2013-05-01 06:26:00,61.4,28.0,30.16,WNW,292,2.3,3.0,28,0.00,,,0.00,Rainwise IP-100,2013-05-01 13:26:00,
2013-05-01 06:31:00,61.8,28.0,30.16,West,270,2.8,2.8,27,0.00,,,0.00,Rainwise IP-100,2013-05-01 13:31:00,
2013-05-01 06:36:00,62.5,28.0,30.16,WNW,292,2.8,3.5,26,0.00,,,0.00,Rainwise IP-100,2013-05-01 13:36:00,
2013-05-01 06:41:00,63.5,28.0,30.17,WNW,292,2.8,3.5,25,0.00,,,0.00,Rainwise IP-100,2013-05-01 13:41:00,
2013-05-01 06:46:00,63.8,28.0,30.17,WNW,292,2.3,4.2,25,0.00,,,0.00,Rainwise IP-100,2013-05-01 13:46:00,
2013-05-01 06:51:00,63.5,28.0,30.17,NNW,337,2.6,3.0,25,0.00,,,0.00,Rainwise IP-100,2013-05-01 13:51:00,
2013-05-01 06:56:00,63.2,28.0,30.17,NNE,22,2.3,4.7,26,0.00,,,0.00,Rainwise IP-100,2013-05-01 13:56:00,
2013-05-01 07:01:00,63.6,29.0,30.18,NE,45,1.2,3.5,27,0.00,,,0.00,Rainwise IP-100,2013-05-01 14:01:00,
2013-05-01 07:06:00,64.3,31.0,30.18,ENE,67,3.0,3.0,28,0.00,,,0.00,Rainwise IP-100,2013-05-01 14:06:00,
2013-05-01 07:11:00,64.7,31.0,30.18,ENE,67,3.3,4.2,28,0.00,,,0.00,Rainwise IP-100,2013-05-01 14:11:00,
2013-05-01 07:16:00,65.0,31.0,30.18,NE,45,1.6,4.7,27,0.00,,,0.00,Rainwise IP-100,2013-05-01 14:16:00,
2013-05-01 07:21:00,65.5,29.0,30.18,NNE,22,1.6,5.8,26,0.00,,,0.00,Rainwise IP-100,2013-05-01 14:21:00,
2013-05-01 07:26:00,65.9,31.0,30.19,NNE,22,3.3,5.6,26,0.00,,,0.00,Rainwise IP-100,2013-05-01 14:26:00,
2013-05-01 07:31:00,66.2,31.0,30.19,NNE,22,3.5,6.8,26,0.00,,,0.00,Rainwise IP-100,2013-05-01 14:31:00,
2013-05-01 07:36:00,66.3,31.0,30.20,NNE,22,2.8,5.4,26,0.00,,,0.00,Rainwise IP-100,2013-05-01 14:36:00,
2013-05-01 07:41:00,66.5,31.0,30.19,NNE,22,3.3,9.3,26,0.00,,,0.00,Rainwise IP-100,2013-05-01 14:41:00,
2013-05-01 07:46:00,66.8,31.0,30.19,ENE,67,4.2,9.1,26,0.00,,,0.00,Rainwise IP-100,2013-05-01 14:46:00,
2013-05-01 07:51:00,67.0,31.0,30.19,East,90,1.4,7.5,25,0.00,,,0.00,Rainwise IP-100,2013-05-01 14:51:00,
2013-05-01 07:56:00,67.2,29.0,30.20,ENE,67,0.0,9.3,24,0.00,,,0.00,Rainwise IP-100,2013-05-01 14:56:00,
2013-05-01 08:01:00,67.5,29.0,30.20,SSW,202,2.8,8.2,23,0.00,,,0.00,Rainwise IP-100,2013-05-01 15:01:00,
2013-05-01 08:06:00,67.9,29.0,30.20,NNE,22,0.0,5.4,23,0.00,,,0.00,Rainwise IP-100,2013-05-01 15:06:00,
2013-05-01 08:11:00,68.3,28.0,30.20,SE,135,4.9,8.6,22,0.00,,,0.00,Rainwise IP-100,2013-05-01 15:11:00,
2013-05-01 08:16:00,68.7,28.0,30.20,ESE,112,1.6,10.7,21,0.00,,,0.00,Rainwise IP-100,2013-05-01 15:16:00,
2013-05-01 08:21:00,68.9,28.0,30.20,NNW,337,2.1,7.9,21,0.00,,,0.00,Rainwise IP-100,2013-05-01 15:21:00,
2013-05-01 08:26:00,69.2,26.0,30.21,NE,45,1.9,8.6,20,0.00,,,0.00,Rainwise IP-100,2013-05-01 15:26:00,
2013-05-01 08:31:00,69.6,26.0,30.21,SSE,157,0.0,8.6,19,0.00,,,0.00,Rainwise IP-100,2013-05-01 15:31:00,
2013-05-01 08:36:00,69.7,24.0,30.21,ESE,112,1.4,13.5,18,0.00,,,0.00,Rainwise IP-100,2013-05-01 15:36:00,
2013-05-01 08:41:00,69.6,23.0,30.21,NNW,337,4.2,13.5,17,0.00,,,0.00,Rainwise IP-100,2013-05-01 15:41:00,
2013-05-01 08:46:00,69.7,23.0,30.21,NNE,22,14.9,14.9,17,0.00,,,0.00,Rainwise IP-100,2013-05-01 15:46:00,
2013-05-01 08:51:00,69.9,24.0,30.21,ENE,67,2.1,14.9,17,0.00,,,0.00,Rainwise IP-100,2013-05-01 15:51:00,
2013-05-01 08:56:00,70.0,24.0,30.21,NE,45,8.4,11.4,17,0.00,,,0.00,Rainwise IP-100,2013-05-01 15:56:00,
2013-05-01 09:01:00,70.1,24.0,30.22,NNE,22,1.9,11.9,18,0.00,,,0.00,Rainwise IP-100,2013-05-01 16:01:00,
2013-05-01 09:06:00,70.5,26.0,30.22,WSW,247,0.0,10.5,18,0.00,,,0.00,Rainwise IP-100,2013-05-01 16:06:00,
2013-05-01 09:11:00,70.8,26.0,30.22,NW,315,9.1,10.0,18,0.00,,,0.00,Rainwise IP-100,2013-05-01 16:11:00,
2013-05-01 09:16:00,70.5,26.0,30.22,NNE,22,5.4,13.1,18,0.00,,,0.00,Rainwise IP-100,2013-05-01 16:16:00,
2013-05-01 09:21:00,70.4,26.0,30.23,North,360,4.9,9.1,18,0.00,,,0.00,Rainwise IP-100,2013-05-01 16:21:00,
2013-05-01 09:26:00,70.9,26.0,30.22,North,360,0.0,11.9,18,0.00,,,0.00,Rainwise IP-100,2013-05-01 16:26:00,
2013-05-01 09:31:00,71.3,26.0,30.22,North,360,6.8,11.4,18,0.00,,,0.00,Rainwise IP-100,2013-05-01 16:31:00,
2013-05-01 09:36:00,71.3,24.0,30.23,SSW,202,1.4,13.5,17,0.00,,,0.00,Rainwise IP-100,2013-05-01 16:36:00,
2013-05-01 09:41:00,71.1,24.0,30.23,NNE,22,7.5,14.2,17,0.00,,,0.00,Rainwise IP-100,2013-05-01 16:41:00,
2013-05-01 09:46:00,71.4,24.0,30.23,NE,45,13.8,13.8,17,0.00,,,0.00,Rainwise IP-100,2013-05-01 16:46:00,
2013-05-01 09:51:00,71.4,24.0,30.23,NNE,22,0.0,15.4,17,0.00,,,0.00,Rainwise IP-100,2013-05-01 16:51:00,
2013-05-01 09:56:00,71.4,23.0,30.23,ESE,112,1.2,15.4,16,0.00,,,0.00,Rainwise IP-100,2013-05-01 16:56:00,
2013-05-01 10:01:00,72.0,24.0,30.23,NNW,337,6.8,12.8,16,0.00,,,0.00,Rainwise IP-100,2013-05-01 17:01:00,
2013-05-01 10:06:00,72.3,23.0,30.23,NE,45,4.0,12.8,15,0.00,,,0.00,Rainwise IP-100,2013-05-01 17:06:00,
2013-05-01 10:11:00,72.4,23.0,30.23,NNE,22,4.4,10.3,15,0.00,,,0.00,Rainwise IP-100,2013-05-01 17:11:00,
2013-05-01 10:16:00,72.6,23.0,30.23,NNE,22,2.1,13.1,15,0.00,,,0.00,Rainwise IP-100,2013-05-01 17:16:00,
2013-05-01 10:21:00,72.8,23.0,30.23,NNE,22,8.4,15.2,15,0.00,,,0.00,Rainwise IP-100,2013-05-01 17:21:00,
2013-05-01 10:26:00,73.0,23.0,30.23,NNE,22,3.3,12.4,15,0.00,,,0.00,Rainwise IP-100,2013-05-01 17:26:00,
2013-05-01 10:31:00,73.5,24.0,30.23,WNW,292,3.0,10.0,15,0.00,,,0.00,Rainwise IP-100,2013-05-01 17:31:00,
2013-05-01 10:36:00,74.1,23.0,30.24,NNE,22,4.4,11.0,14,0.00,,,0.00,Rainwise IP-100,2013-05-01 17:36:00,
2013-05-01 10:41:00,74.2,23.0,30.24,WNW,292,3.3,9.1,14,0.00,,,0.00,Rainwise IP-100,2013-05-01 17:41:00,
2013-05-01 10:46:00,74.3,23.0,30.24,North,360,7.2,11.4,14,0.00,,,0.00,Rainwise IP-100,2013-05-01 17:46:00,
2013-05-01 10:51:00,74.2,23.0,30.24,NNW,337,3.5,10.0,14,0.00,,,0.00,Rainwise IP-100,2013-05-01 17:51:00,
2013-05-01 10:56:00,74.4,23.0,30.24,NNE,22,5.6,11.0,14,0.00,,,0.00,Rainwise IP-100,2013-05-01 17:56:00,
2013-05-01 11:01:00,74.6,23.0,30.24,East,90,1.6,11.0,14,0.00,,,0.00,Rainwise IP-100,2013-05-01 18:01:00,
2013-05-01 11:06:00,74.8,23.0,30.24,NE,45,5.4,11.0,14,0.00,,,0.00,Rainwise IP-100,2013-05-01 18:06:00,
2013-05-01 11:11:00,74.8,23.0,30.24,NW,315,7.7,13.8,14,0.00,,,0.00,Rainwise IP-100,2013-05-01 18:11:00,
2013-05-01 11:16:00,74.8,23.0,30.25,NNE,22,11.4,11.7,14,0.00,,,0.00,Rainwise IP-100,2013-05-01 18:16:00,
2013-05-01 11:21:00,74.8,23.0,30.24,North,360,0.0,13.5,14,0.00,,,0.00,Rainwise IP-100,2013-05-01 18:21:00,
2013-05-01 11:26:00,74.9,24.0,30.25,NNW,337,9.1,9.1,15,0.00,,,0.00,Rainwise IP-100,2013-05-01 18:26:00,
2013-05-01 11:31:00,75.2,26.0,30.25,WNW,292,2.8,11.4,16,0.00,,,0.00,Rainwise IP-100,2013-05-01 18:31:00,
2013-05-01 11:36:00,76.0,26.0,30.25,WSW,247,1.4,9.6,16,0.00,,,0.00,Rainwise IP-100,2013-05-01 18:36:00,
2013-05-01 11:41:00,77.0,28.0,30.25,NW,315,9.3,9.3,16,0.00,,,0.00,Rainwise IP-100,2013-05-01 18:41:00,
2013-05-01 11:46:00,76.9,29.0,30.25,NNW,337,6.3,9.8,17,0.00,,,0.00,Rainwise IP-100,2013-05-01 18:46:00,
2013-05-01 11:51:00,76.1,32.0,30.25,WNW,292,5.6,10.5,20,0.00,,,0.00,Rainwise IP-100,2013-05-01 18:51:00,
2013-05-01 11:56:00,75.7,35.0,30.25,ESE,112,2.8,11.2,22,0.00,,,0.00,Rainwise IP-100,2013-05-01 18:56:00,
2013-05-01 12:01:00,76.2,35.0,30.25,SE,135,3.0,8.9,22,0.00,,,0.00,Rainwise IP-100,2013-05-01 19:01:00,
2013-05-01 12:06:00,75.6,38.0,30.25,West,270,11.4,11.4,26,0.00,,,0.00,Rainwise IP-100,2013-05-01 19:06:00,
2013-05-01 12:11:00,73.8,42.0,30.25,West,270,4.4,13.3,32,0.00,,,0.00,Rainwise IP-100,2013-05-01 19:11:00,
2013-05-01 12:16:00,73.9,41.0,30.25,NNW,337,9.6,9.6,31,0.00,,,0.00,Rainwise IP-100,2013-05-01 19:16:00,
2013-05-01 12:21:00,75.1,37.0,30.25,WNW,292,2.8,12.8,25,0.00,,,0.00,Rainwise IP-100,2013-05-01 19:21:00,
2013-05-01 12:26:00,74.1,41.0,30.25,WSW,247,2.8,8.6,30,0.00,,,0.00,Rainwise IP-100,2013-05-01 19:26:00,
2013-05-01 12:31:00,70.8,45.0,30.25,SSW,202,4.7,11.0,40,0.00,,,0.00,Rainwise IP-100,2013-05-01 19:31:00,
2013-05-01 12:36:00,67.6,46.0,30.26,WSW,247,2.6,12.8,46,0.00,,,0.00,Rainwise IP-100,2013-05-01 19:36:00,
2013-05-01 12:37:00,67.0,46.0,30.25,WNW,292,4.9,12.8,47,0.00,,,0.00,Rainwise IP-100,2013-05-01 19:37:00,
2013-05-01 12:42:00,65.8,46.0,30.25,SSW,202,1.4,10.5,49,0.00,,,0.00,Rainwise IP-100,2013-05-01 19:42:00,
2013-05-01 12:43:00,65.7,47.0,30.26,WSW,247,1.2,10.5,50,0.00,,,0.00,Rainwise IP-100,2013-05-01 19:43:00,
2013-05-01 12:48:00,66.4,47.0,30.26,NW,315,2.1,12.4,49,0.00,,,0.00,Rainwise IP-100,2013-05-01 19:48:00,
2013-05-01 12:53:00,64.8,47.0,30.27,SSW,202,8.9,19.8,51,0.00,,,0.00,Rainwise IP-100,2013-05-01 19:53:00,
2013-05-01 12:58:00,62.4,46.0,30.27,WSW,247,2.8,16.3,55,0.00,,,0.00,Rainwise IP-100,2013-05-01 19:58:00,
2013-05-01 13:03:00,62.5,47.0,30.27,NNE,22,0.0,11.2,57,0.00,,,0.00,Rainwise IP-100,2013-05-01 20:03:00,
2013-05-01 13:08:00,64.1,47.5,30.27,WNW,292,3.7,11.9,55,0.00,,,0.00,Rainwise IP-100,2013-05-01 20:08:00,
2013-05-01 13:13:00,64.7,47.5,30.27,WSW,247,5.4,10.3,54,0.00,,,0.00,Rainwise IP-100,2013-05-01 20:13:00,
2013-05-01 13:18:00,64.3,47.5,30.26,WNW,292,1.4,12.1,54,0.00,,,0.00,Rainwise IP-100,2013-05-01 20:18:00,
2013-05-01 13:23:00,64.0,48.0,30.27,SSW,202,5.1,10.3,56,0.00,,,0.00,Rainwise IP-100,2013-05-01 20:23:00,
2013-05-01 13:28:00,63.4,47.5,30.27,SW,225,5.1,19.4,56,0.00,,,0.00,Rainwise IP-100,2013-05-01 20:28:00,
2013-05-01 13:33:00,62.7,47.0,30.27,WNW,292,7.5,15.2,57,0.00,,,0.00,Rainwise IP-100,2013-05-01 20:33:00,
2013-05-01 13:38:00,62.7,47.5,30.27,West,270,7.5,13.5,58,0.00,,,0.00,Rainwise IP-100,2013-05-01 20:38:00,
2013-05-01 13:43:00,63.5,48.0,30.27,WSW,247,1.2,11.9,58,0.00,,,0.00,Rainwise IP-100,2013-05-01 20:43:00,
2013-05-01 13:48:00,64.8,49.0,30.27,WSW,247,1.9,5.8,56,0.00,,,0.00,Rainwise IP-100,2013-05-01 20:48:00,
2013-05-01 13:53:00,64.9,48.0,30.27,WSW,247,8.9,11.9,55,0.00,,,0.00,Rainwise IP-100,2013-05-01 20:53:00,
2013-05-01 13:58:00,64.0,48.0,30.27,West,270,9.3,15.4,56,0.00,,,0.00,Rainwise IP-100,2013-05-01 20:58:00,
2013-05-01 14:03:00,63.1,48.0,30.27,SSW,202,2.1,15.2,58,0.00,,,0.00,Rainwise IP-100,2013-05-01 21:03:00,
2013-05-01 14:08:00,63.4,48.0,30.27,West,270,11.7,12.6,58,0.00,,,0.00,Rainwise IP-100,2013-05-01 21:08:00,
2013-05-01 14:13:00,63.5,48.0,30.27,WSW,247,5.6,15.4,58,0.00,,,0.00,Rainwise IP-100,2013-05-01 21:13:00,
2013-05-01 14:18:00,62.8,48.0,30.27,SW,225,2.1,16.6,59,0.00,,,0.00,Rainwise IP-100,2013-05-01 21:18:00,
2013-05-01 14:23:00,62.5,48.0,30.28,NNE,22,2.6,14.5,59,0.00,,,0.00,Rainwise IP-100,2013-05-01 21:23:00,
2013-05-01 14:28:00,62.4,48.0,30.27,WSW,247,4.7,15.4,60,0.00,,,0.00,Rainwise IP-100,2013-05-01 21:28:00,
2013-05-01 14:33:00,62.2,48.0,30.27,SW,225,3.0,13.5,60,0.00,,,0.00,Rainwise IP-100,2013-05-01 21:33:00,
2013-05-01 14:38:00,62.7,48.0,30.28,WNW,292,7.0,11.9,60,0.00,,,0.00,Rainwise IP-100,2013-05-01 21:38:00,
2013-05-01 14:43:00,63.3,49.0,30.27,WNW,292,3.5,11.7,59,0.00,,,0.00,Rainwise IP-100,2013-05-01 21:43:00,
2013-05-01 14:48:00,63.3,49.0,30.27,West,270,1.2,14.5,59,0.00,,,0.00,Rainwise IP-100,2013-05-01 21:48:00,
2013-05-01 14:53:00,63.1,49.0,30.27,West,270,4.7,10.7,60,0.00,,,0.00,Rainwise IP-100,2013-05-01 21:53:00,
2013-05-01 14:58:00,62.7,49.0,30.27,WSW,247,4.4,12.1,61,0.00,,,0.00,Rainwise IP-100,2013-05-01 21:58:00,
2013-05-01 15:03:00,62.2,49.0,30.27,SW,225,7.9,15.9,62,0.00,,,0.00,Rainwise IP-100,2013-05-01 22:03:00,
2013-05-01 15:08:00,62.3,49.0,30.27,WSW,247,2.8,12.1,62,0.00,,,0.00,Rainwise IP-100,2013-05-01 22:08:00,
2013-05-01 15:13:00,62.6,49.0,30.27,SSE,157,5.1,13.3,62,0.00,,,0.00,Rainwise IP-100,2013-05-01 22:13:00,
2013-05-01 15:18:00,62.5,49.0,30.27,SSW,202,5.8,14.9,62,0.00,,,0.00,Rainwise IP-100,2013-05-01 22:18:00,
2013-05-01 15:23:00,62.5,50.0,30.27,WSW,247,1.2,11.9,63,0.00,,,0.00,Rainwise IP-100,2013-05-01 22:23:00,
2013-05-01 15:28:00,63.1,50.0,30.27,West,270,3.5,11.7,62,0.00,,,0.00,Rainwise IP-100,2013-05-01 22:28:00,
2013-05-01 15:33:00,62.9,49.0,30.27,SW,225,4.0,13.5,61,0.00,,,0.00,Rainwise IP-100,2013-05-01 22:33:00,
2013-05-01 15:38:00,62.3,49.0,30.27,WSW,247,2.6,14.5,62,0.00,,,0.00,Rainwise IP-100,2013-05-01 22:38:00,
2013-05-01 15:43:00,62.4,49.0,30.26,ENE,67,4.2,13.3,62,0.00,,,0.00,Rainwise IP-100,2013-05-01 22:43:00,
2013-05-01 15:48:00,62.8,49.0,30.26,WSW,247,2.1,15.2,61,0.00,,,0.00,Rainwise IP-100,2013-05-01 22:48:00,
2013-05-01 15:53:00,62.8,49.0,30.26,SSW,202,3.0,14.2,61,0.00,,,0.00,Rainwise IP-100,2013-05-01 22:53:00,
2013-05-01 15:58:00,62.9,49.0,30.26,SSE,157,0.0,10.3,61,0.00,,,0.00,Rainwise IP-100,2013-05-01 22:58:00,
2013-05-01 16:03:00,63.2,49.0,30.26,SW,225,2.1,12.1,61,0.00,,,0.00,Rainwise IP-100,2013-05-01 23:03:00,
2013-05-01 16:08:00,63.1,49.0,30.26,South,180,2.8,14.5,61,0.00,,,0.00,Rainwise IP-100,2013-05-01 23:08:00,
2013-05-01 16:13:00,62.5,49.0,30.27,SSW,202,6.8,12.4,62,0.00,,,0.00,Rainwise IP-100,2013-05-01 23:13:00,
2013-05-01 16:18:00,61.8,50.0,30.26,SW,225,5.8,14.0,64,0.00,,,0.00,Rainwise IP-100,2013-05-01 23:18:00,
2013-05-01 16:23:00,62.1,50.0,30.26,WNW,292,6.8,11.2,64,0.00,,,0.00,Rainwise IP-100,2013-05-01 23:23:00,
2013-05-01 16:28:00,61.7,49.0,30.26,SSW,202,4.2,13.5,64,0.00,,,0.00,Rainwise IP-100,2013-05-01 23:28:00,
2013-05-01 16:33:00,61.1,49.0,30.26,NW,315,3.3,11.7,65,0.00,,,0.00,Rainwise IP-100,2013-05-01 23:33:00,
2013-05-01 16:38:00,61.4,50.0,30.26,SSW,202,2.3,12.8,65,0.00,,,0.00,Rainwise IP-100,2013-05-01 23:38:00,
2013-05-01 16:43:00,61.6,50.0,30.26,WNW,292,3.7,11.2,65,0.00,,,0.00,Rainwise IP-100,2013-05-01 23:43:00,
2013-05-01 16:48:00,61.6,50.0,30.26,West,270,0.0,11.0,65,0.00,,,0.00,Rainwise IP-100,2013-05-01 23:48:00,
2013-05-01 16:53:00,61.7,49.0,30.26,WNW,292,2.3,11.9,64,0.00,,,0.00,Rainwise IP-100,2013-05-01 23:53:00,
2013-05-01 16:58:00,61.9,50.0,30.26,SSW,202,1.2,10.7,64,0.00,,,0.00,Rainwise IP-100,2013-05-01 23:58:00,
2013-05-01 17:03:00,62.2,49.0,30.26,NE,45,1.6,10.3,63,0.00,,,0.00,Rainwise IP-100,2013-05-02 00:03:00,
2013-05-01 17:08:00,62.3,50.0,30.26,NW,315,3.0,10.3,63,0.00,,,0.00,Rainwise IP-100,2013-05-02 00:08:00,
2013-05-01 17:13:00,62.1,49.0,30.26,WSW,247,2.8,10.7,63,0.00,,,0.00,Rainwise IP-100,2013-05-02 00:13:00,
2013-05-01 17:18:00,61.5,49.0,30.26,SW,225,6.5,13.8,64,0.00,,,0.00,Rainwise IP-100,2013-05-02 00:18:00,
2013-05-01 17:23:00,61.0,49.0,30.26,SW,225,3.0,12.4,65,0.00,,,0.00,Rainwise IP-100,2013-05-02 00:23:00,
2013-05-01 17:28:00,60.9,50.0,30.26,NNW,337,1.6,14.2,66,0.00,,,0.00,Rainwise IP-100,2013-05-02 00:28:00,
2013-05-01 17:33:00,60.6,49.0,30.26,SSE,157,3.5,13.1,66,0.00,,,0.00,Rainwise IP-100,2013-05-02 00:33:00,
2013-05-01 17:38:00,60.3,50.0,30.26,SSW,202,8.9,17.7,67,0.00,,,0.00,Rainwise IP-100,2013-05-02 00:38:00,
2013-05-01 17:43:00,59.9,49.0,30.27,WSW,247,7.7,14.2,68,0.00,,,0.00,Rainwise IP-100,2013-05-02 00:43:00,
2013-05-01 17:48:00,59.2,49.0,30.28,North,360,1.4,14.9,69,0.00,,,0.00,Rainwise IP-100,2013-05-02 00:48:00,
2013-05-01 17:53:00,58.6,49.0,30.28,ESE,112,5.6,12.8,70,0.00,,,0.00,Rainwise IP-100,2013-05-02 00:53:00,
2013-05-01 17:58:00,58.3,49.0,30.28,West,270,1.6,12.1,71,0.00,,,0.00,Rainwise IP-100,2013-05-02 00:58:00,
2013-05-01 18:03:00,58.5,50.0,30.27,SSE,157,4.4,11.0,72,0.00,,,0.00,Rainwise IP-100,2013-05-02 01:03:00,
2013-05-01 18:08:00,58.4,49.0,30.27,WSW,247,7.7,12.1,72,0.00,,,0.00,Rainwise IP-100,2013-05-02 01:08:00,
2013-05-01 18:13:00,58.0,49.0,30.28,WSW,247,2.6,12.6,72,0.00,,,0.00,Rainwise IP-100,2013-05-02 01:13:00,
2013-05-01 18:18:00,57.9,50.0,30.28,SSW,202,5.6,11.7,73,0.00,,,0.00,Rainwise IP-100,2013-05-02 01:18:00,
2013-05-01 18:23:00,58.0,50.0,30.28,WNW,292,6.5,9.3,73,0.00,,,0.00,Rainwise IP-100,2013-05-02 01:23:00,
2013-05-01 18:28:00,57.8,50.0,30.27,SSW,202,5.1,14.5,73,0.00,,,0.00,Rainwise IP-100,2013-05-02 01:28:00,
2013-05-01 18:33:00,57.6,50.0,30.28,NW,315,3.3,8.4,74,0.00,,,0.00,Rainwise IP-100,2013-05-02 01:33:00,
2013-05-01 18:38:00,57.5,50.0,30.27,West,270,4.2,11.2,74,0.00,,,0.00,Rainwise IP-100,2013-05-02 01:38:00,
2013-05-01 18:43:00,57.1,49.0,30.28,WNW,292,1.6,14.2,75,0.00,,,0.00,Rainwise IP-100,2013-05-02 01:43:00,
2013-05-01 18:48:00,56.8,50.0,30.28,WNW,292,3.5,11.0,76,0.00,,,0.00,Rainwise IP-100,2013-05-02 01:48:00,
2013-05-01 18:53:00,56.3,49.0,30.28,NW,315,2.8,14.0,77,0.00,,,0.00,Rainwise IP-100,2013-05-02 01:53:00,
2013-05-01 18:58:00,56.0,49.0,30.28,SW,225,5.6,13.1,78,0.00,,,0.00,Rainwise IP-100,2013-05-02 01:58:00,
2013-05-01 19:03:00,55.8,50.0,30.28,West,270,6.1,13.1,79,0.00,,,0.00,Rainwise IP-100,2013-05-02 02:03:00,
2013-05-01 19:08:00,55.6,50.0,30.28,SW,225,4.9,13.1,79,0.00,,,0.00,Rainwise IP-100,2013-05-02 02:08:00,
2013-05-01 19:13:00,55.3,49.0,30.28,WNW,292,1.4,12.6,80,0.00,,,0.00,Rainwise IP-100,2013-05-02 02:13:00,
2013-05-01 19:18:00,54.9,50.0,30.28,WNW,292,5.8,14.9,81,0.00,,,0.00,Rainwise IP-100,2013-05-02 02:18:00,
2013-05-01 19:23:00,54.6,49.0,30.28,WNW,292,5.4,12.8,82,0.00,,,0.00,Rainwise IP-100,2013-05-02 02:23:00,
2013-05-01 19:28:00,54.3,50.0,30.28,WNW,292,5.6,11.9,83,0.00,,,0.00,Rainwise IP-100,2013-05-02 02:28:00,
2013-05-01 19:33:00,54.1,49.0,30.28,WNW,292,0.0,10.7,83,0.00,,,0.00,Rainwise IP-100,2013-05-02 02:33:00,
2013-05-01 19:38:00,53.8,49.0,30.29,West,270,0.0,14.2,84,0.00,,,0.00,Rainwise IP-100,2013-05-02 02:38:00,
2013-05-01 19:43:00,53.6,49.0,30.28,WSW,247,4.0,7.7,85,0.00,,,0.00,Rainwise IP-100,2013-05-02 02:43:00,
2013-05-01 19:48:00,53.5,49.0,30.28,WNW,292,1.9,14.5,85,0.00,,,0.00,Rainwise IP-100,2013-05-02 02:48:00,
2013-05-01 19:53:00,53.5,49.0,30.29,West,270,2.8,12.4,86,0.00,,,0.00,Rainwise IP-100,2013-05-02 02:53:00,
2013-05-01 19:57:00,53.4,49.0,30.29,WNW,292,3.0,12.4,86,0.00,,,0.00,Rainwise IP-100,2013-05-02 02:57:00,
2013-05-01 20:02:00,53.2,48.0,30.29,WNW,292,5.1,11.0,86,0.00,,,0.00,Rainwise IP-100,2013-05-02 03:02:00,
2013-05-01 20:07:00,53.0,48.0,30.29,SW,225,0.0,10.5,86,0.00,,,0.00,Rainwise IP-100,2013-05-02 03:07:00,
2013-05-01 20:12:00,52.9,49.0,30.30,NNE,22,0.0,9.8,87,0.00,,,0.00,Rainwise IP-100,2013-05-02 03:12:00,
2013-05-01 20:17:00,52.8,49.0,30.29,WNW,292,5.1,10.7,87,0.00,,,0.00,Rainwise IP-100,2013-05-02 03:17:00,
2013-05-01 20:22:00,52.8,49.0,30.30,West,270,1.2,11.9,88,0.00,,,0.00,Rainwise IP-100,2013-05-02 03:22:00,
2013-05-01 20:27:00,52.7,49.0,30.29,SSW,202,2.8,8.9,88,0.00,,,0.00,Rainwise IP-100,2013-05-02 03:27:00,
2013-05-01 20:32:00,52.7,49.0,30.30,WNW,292,1.9,10.0,88,0.00,,,0.00,Rainwise IP-100,2013-05-02 03:32:00,
2013-05-01 20:37:00,52.7,49.0,30.29,WSW,247,6.5,10.7,88,0.00,,,0.00,Rainwise IP-100,2013-05-02 03:37:00,
2013-05-01 20:42:00,52.7,49.0,30.30,East,90,1.4,9.8,88,0.00,,,0.00,Rainwise IP-100,2013-05-02 03:42:00,
2013-05-01 20:47:00,52.7,49.0,30.30,ESE,112,2.1,9.1,88,0.00,,,0.00,Rainwise IP-100,2013-05-02 03:47:00,
2013-05-01 20:52:00,52.6,49.0,30.30,WSW,247,5.4,7.7,88,0.00,,,0.00,Rainwise IP-100,2013-05-02 03:52:00,
2013-05-01 20:57:00,52.7,49.0,30.30,WSW,247,3.0,8.6,88,0.00,,,0.00,Rainwise IP-100,2013-05-02 03:57:00,
2013-05-01 21:01:00,52.7,49.0,30.30,SSE,157,4.2,6.8,88,0.00,,,0.00,Rainwise IP-100,2013-05-02 04:01:00,
2013-05-01 21:06:00,52.7,49.0,30.30,SW,225,3.3,8.6,88,0.00,,,0.00,Rainwise IP-100,2013-05-02 04:06:00,
2013-05-01 21:11:00,52.7,49.0,30.31,West,270,3.3,10.3,88,0.00,,,0.00,Rainwise IP-100,2013-05-02 04:11:00,
2013-05-01 21:16:00,52.7,49.0,30.31,West,270,2.6,8.6,87,0.00,,,0.00,Rainwise IP-100,2013-05-02 04:16:00,
2013-05-01 21:21:00,52.7,49.0,30.30,WNW,292,1.6,9.8,87,0.00,,,0.00,Rainwise IP-100,2013-05-02 04:21:00,
2013-05-01 21:26:00,52.7,49.0,30.31,South,180,1.9,7.0,87,0.00,,,0.00,Rainwise IP-100,2013-05-02 04:26:00,
2013-05-01 21:28:00,52.8,48.0,30.31,WSW,247,2.6,9.3,86,0.00,,,0.00,Rainwise IP-100,2013-05-02 04:28:00,
2013-05-01 21:33:00,53.0,48.0,30.31,South,180,3.0,8.2,85,0.00,,,0.00,Rainwise IP-100,2013-05-02 04:33:00,
2013-05-01 21:38:00,53.3,48.0,30.31,WNW,292,2.1,6.1,84,0.00,,,0.00,Rainwise IP-100,2013-05-02 04:38:00,
2013-05-01 21:43:00,53.4,48.0,30.31,NNW,337,2.1,4.7,83,0.00,,,0.00,Rainwise IP-100,2013-05-02 04:43:00,
2013-05-01 21:48:00,53.5,48.0,30.31,SE,135,4.4,5.8,82,0.00,,,0.00,Rainwise IP-100,2013-05-02 04:48:00,
2013-05-01 21:53:00,53.6,47.5,30.31,ESE,112,0.0,8.2,81,0.00,,,0.00,Rainwise IP-100,2013-05-02 04:53:00,
2013-05-01 21:58:00,53.7,47.5,30.31,SW,225,0.0,3.5,81,0.00,,,0.00,Rainwise IP-100,2013-05-02 04:58:00,
2013-05-01 22:03:00,53.8,48.0,30.31,WSW,247,1.9,2.6,80,0.00,,,0.00,Rainwise IP-100,2013-05-02 05:03:00,
2013-05-01 22:08:00,54.0,47.5,30.31,SE,135,1.4,4.0,79,0.00,,,0.00,Rainwise IP-100,2013-05-02 05:08:00,
2013-05-01 22:13:00,54.3,48.0,30.31,WSW,247,4.0,4.2,78,0.00,,,0.00,Rainwise IP-100,2013-05-02 05:13:00,
2013-05-01 22:18:00,54.4,47.5,30.31,SSW,202,1.4,4.9,77,0.00,,,0.00,Rainwise IP-100,2013-05-02 05:18:00,
2013-05-01 22:23:00,54.5,47.5,30.31,SSE,157,1.2,4.2,77,0.00,,,0.00,Rainwise IP-100,2013-05-02 05:23:00,
2013-05-01 22:28:00,54.6,47.5,30.31,SSW,202,0.0,4.9,76,0.00,,,0.00,Rainwise IP-100,2013-05-02 05:28:00,
2013-05-01 22:33:00,54.7,47.0,30.32,SSE,157,1.2,3.7,75,0.00,,,0.00,Rainwise IP-100,2013-05-02 05:33:00,
2013-05-01 22:38:00,54.7,47.0,30.32,SSW,202,0.0,4.4,75,0.00,,,0.00,Rainwise IP-100,2013-05-02 05:38:00,
2013-05-01 22:43:00,54.6,47.5,30.32,NW,315,1.2,4.0,76,0.00,,,0.00,Rainwise IP-100,2013-05-02 05:43:00,
2013-05-01 22:48:00,54.6,47.5,30.32,WSW,247,1.9,5.1,76,0.00,,,0.00,Rainwise IP-100,2013-05-02 05:48:00,
2013-05-01 22:53:00,54.8,47.5,30.31,SSE,157,2.3,4.4,75,0.00,,,0.00,Rainwise IP-100,2013-05-02 05:53:00,
2013-05-01 22:58:00,54.7,47.0,30.32,SSW,202,0.0,2.8,75,0.00,,,0.00,Rainwise IP-100,2013-05-02 05:58:00,
2013-05-01 23:03:00,54.4,47.5,30.31,SE,135,0.0,2.3,76,0.00,,,0.00,Rainwise IP-100,2013-05-02 06:03:00,
2013-05-01 23:08:00,54.2,47.0,30.31,SW,225,1.9,4.0,77,0.00,,,0.00,Rainwise IP-100,2013-05-02 06:08:00,
2013-05-01 23:13:00,54.2,47.0,30.31,SW,225,0.0,2.8,76,0.00,,,0.00,Rainwise IP-100,2013-05-02 06:13:00,
2013-05-01 23:18:00,54.3,47.0,30.31,SW,225,0.0,1.9,75,0.00,,,0.00,Rainwise IP-100,2013-05-02 06:18:00,
2013-05-01 23:23:00,54.4,47.0,30.31,SSW,202,0.0,4.0,75,0.00,,,0.00,Rainwise IP-100,2013-05-02 06:23:00,
2013-05-01 23:28:00,54.4,47.5,30.32,SSE,157,1.4,2.6,76,0.00,,,0.00,Rainwise IP-100,2013-05-02 06:28:00,
2013-05-01 23:33:00,54.1,47.0,30.31,SSE,157,0.0,1.4,77,0.00,,,0.00,Rainwise IP-100,2013-05-02 06:33:00,
2013-05-01 23:38:00,53.7,47.0,30.32,SSE,157,1.2,1.6,77,0.00,,,0.00,Rainwise IP-100,2013-05-02 06:38:00,
2013-05-01 23:43:00,53.6,47.0,30.32,South,180,1.2,1.6,78,0.00,,,0.00,Rainwise IP-100,2013-05-02 06:43:00,
2013-05-01 23:48:00,53.6,47.0,30.32,WNW,292,0.0,1.6,78,0.00,,,0.00,Rainwise IP-100,2013-05-02 06:48:00,
2013-05-01 23:53:00,53.5,47.0,30.32,South,180,1.4,2.1,78,0.00,,,0.00,Rainwise IP-100,2013-05-02 06:53:00,
2013-05-01 23:58:00,53.4,47.0,30.32,South,180,0.0,1.4,77,0.00,,,0.00,Rainwise IP-100,2013-05-02 06:58:00,